Regional Weather Roundup
Issued by NWS

Home | Current Version | Previous Version | Text Only | Print | Product List | Glossary Off
Versions: 1 2 3 4 5 6 7 8 9 10 11 12 13 14 15 16 17 18 19 20 21 22 23 24 25 26 27 28 29 30 31 32 33 34 35 36 37 38 39 40 41 42 43 44 45 46 47 48 49 50

955
ASUS43 KDTX 241510
RWRMI
MICHIGAN HOURLY REGIONAL WEATHER ROUNDUP
NATIONAL WEATHER SERVICE DETROIT/PONTIAC MI
ISSUED BY NATIONAL WEATHER SERVICE GRAND RAPIDS MI
1100 AM EDT WED MAY 24 2017

NOTE: "FAIR" INDICATES FEW OR NO CLOUDS BELOW 12,000 FEET WITH NO
SIGNIFICANT WEATHER AND/OR OBSTRUCTION TO VISIBILITY.

MIZ047>049-052>055-059>063-066>070-074>076-081>083-241600-
SOUTHEAST LOWER MICHIGAN

CITY           SKY/WX    TMP DP  RH WIND       PRES   REMARKS
ADRIAN         CLOUDY    63  56  78 E10       29.58F
ALMA           LGT RAIN  58  55  91 NE8       29.63F
ANN ARBOR      CLOUDY    65  56  72 NE7       29.58F
BAD AXE        CLOUDY    61  55  79 E7        29.67R
DETROIT CITY   CLOUDY    62  55  77 E12       29.61S
DETROIT        CLOUDY    69  58  67 E13       29.59F
FLINT          CLOUDY    64  54  69 E9        29.61F
GROSSE ILE     CLOUDY    63  57  80 E6        29.59S
HILLSDALE      PTSUNNY   64  55  72 E6        29.56F
HOWELL         CLOUDY    64  54  70 NE8       29.59F

CITY           SKY/WX    TMP DP  RH WIND       PRES   REMARKS
JACKSON        CLOUDY    64  55  72 E9        29.57F
LANSING        CLOUDY    60  53  77 NE9       29.61F
MASON          LGT RAIN  60  55  84 NE8       29.59F
MONROE         CLOUDY    62  58  86 E9        29.58S
MT. CLEMENS    MOSUNNY   64  57  79 E7        29.61S
PONTIAC        PTSUNNY   65  53  65 E9        29.60S
PORT HOPE        N/A     52  50  93 NE15      29.66F
PORT HURON     MOSUNNY   64  54  68 E7        29.63S
TRI CITIES     CLOUDY    58  54  86 NE15      29.65F
YPSILANTI      CLOUDY    68  57  68 E10       29.59F
$$
MIZ043>046-050>051-056>058-064>065-071>073-077>080-241600-
SOUTHWEST LOWER MICHIGAN

CITY           SKY/WX    TMP DP  RH WIND       PRES   REMARKS
BATTLE CREEK   MOSUNNY   64  55  72 E8        29.57F
BENTON HARBOR  CLOUDY    63  55  75 VRB5      29.55F
BIG RAPIDS     CLOUDY    60  51  71 NE8       29.63F
COLDWATER      CLOUDY    63  56  78 E9        29.56F
HOLLAND        PTSUNNY   63  54  72 E10       29.58F
GRAND RAPIDS   CLOUDY    61  55  81 NE14      29.59F
KALAMAZOO      MOSUNNY   65  54  67 VRB6      29.57F
MARSHALL       MOSUNNY   63  56  77 NE3       29.56F
MOUNT PLEASANT CLOUDY    60  54  80 NE6       29.64S
MUSKEGON       CLOUDY    61  53  75 NE10      29.60F
STURGIS        MOSUNNY   66  56  68 E8        29.54F
$$
MIZ016>042-241600-
NORTHERN LOWER MICHIGAN

CITY           SKY/WX    TMP DP  RH WIND       PRES   REMARKS
ALPENA         CLOUDY    54  52  93 E8        29.74F
BEAVER ISLAND  DRIZZLE   50  49  97 E10       29.74S
BELLAIRE       CLOUDY    56  54  91 NE6       29.71S
CADILLAC       LGT RAIN  56  54  92 NE6       29.67F
CHARLEVOIX     DRIZZLE   54  54 100 E9        29.74S
GAYLORD        LGT RAIN  54  51  90 VRB5      29.73R FOG
HOUGHTON LAKE  CLOUDY    57  53  86 NE14      29.69F
MANISTEE       LGT RAIN  57  54  89 NE7       29.66F
OSCODA         CLOUDY    54  52  95 N10       29.71S FOG
PELLSTON       LGT RAIN  52  48  86 E8        29.74F
TRAVERSE CITY  FOG       52  51  97 N5        29.68F VSB 1/2
LUDINGTON      CLOUDY    58  55  90 N6        29.65S
$$
MIZ007>008-015-241600-
EASTERN UPPER MICHIGAN

CITY           SKY/WX    TMP DP  RH WIND       PRES   REMARKS
KINROSS        LGT RAIN  52  50  93 E9        29.77F
MACKINAC ISLAN DRIZZLE   49  49 100 E12G17    29.75S
NEWBERRY       CLOUDY    51  50  97 NE7       29.76S
S. S. MARIE    CLOUDY    53  49  86 E8        29.77F
$$
MIZ004>006-011>014-085-241600-
CENTRAL UPPER MICHIGAN

CITY           SKY/WX    TMP DP  RH WIND       PRES   REMARKS
MANISTIQUE     CLOUDY    52  49  90 E8        29.74F
ESCANABA       CLOUDY    49  47  93 N8        29.74F
MENOMINEE      LGT RAIN  49  47  93 NE9       29.73F
SAWYER-GWINN   CLOUDY    43  43 100 N7        29.77F
$$
MIZ001>003-009>011-084-241600-
WESTERN UPPER MICHIGAN

CITY           SKY/WX    TMP DP  RH WIND       PRES   REMARKS
IRON MOUNTAIN  LGT RAIN  48  45  89 VRB5      29.74F
HOUGHTON       CLOUDY    51  43  74 E12       29.80S
COPPER HARBOR    N/A     46  39  76 E5        29.82S
IRONWOOD       CLOUDY    52  45  76 N8        29.80F
$$

ABBREVIATIONS USED IN REMARKS
   TC - TEMPERATURE IN CELSIUS
  WCI - WIND CHILL INDEX
   HX - HEAT INDEX
  VSB - VISIBILITY





USA.gov is the U.S. government's official web portal to all federal, state and local government web resources and services.